Youngstown, OH

9:37 PM EDT on June 25, 2017 (GMT -0400)
Youngstown-Warren Regional

Weather History for KYNG - May, 2012

Change the Weather History Date:

Sunday, May 27, 2012

  Actual Average Record
Temperature  
Mean Temperature 74 °F 61 °F  
Max Temperature 90 °F 72 °F 92 °F (1939)
Min Temperature 58 °F 50 °F 30 °F (1969)
Degree Days  
Heating Degree Days 0 6  
Month to date heating degree days 96 232  
Since 1 July heating degree days 5041 6259  
Cooling Degree Days 9 2  
Month to date cooling degree days 69 22  
Year to date cooling degree days 81 31  
Growing Degree Days 24 (Base 50)    
Moisture  
Dew Point 62 °F    
Average Humidity 70    
Maximum Humidity 93    
Minimum Humidity 46    
Precipitation  
Precipitation 0.01 in 0.13 in 2.08 in (2011)
Month to date precipitation 3.01 3.27  
Year to date precipitation 14.70 14.27  
Snow  
Snow 0.00 in 0.00 in - ()
Month to date snowfall 0.0 0.0  
Since 1 July snowfall 56.5 62.7  
Snow Depth 0.00 in    
Sea Level Pressure  
Sea Level Pressure 30.09 in    
Wind  
Wind Speed 6 mph (East)    
Max Wind Speed 31 mph    
Max Gust Speed 47 mph    
Visibility 10 miles    
Events Rain , Thunderstorm    
T = Trace of Precipitation, MM = Missing Value Source: NWS Daily Summary

Daily Weather History Graph

Daily Weather History Graph

Search for Another Location

Airport or City:

Trip Planner

Search our weather history database for the weather conditions in past years. The results will help you decide how hot, cold, wet, or windy it might be!

Date:

Astronomy

May. 27, 2012 Rise Set
Actual Time 5:54 AM EDT 8:45 PM EDT
Civil Twilight 5:21 AM EDT 9:18 PM EDT
Nautical Twilight 4:40 AM EDT 10:00 PM EDT
Astronomical Twilight 3:53 AM EDT 10:47 PM EDT
Moon 12:00 PM EDT (5/27) 12:50 AM EDT (5/27)
Length of Visible Light 15h 56m
Length of Day
14h 51m
Waxing Crescent, 38% of the Moon is Illuminated
May 27
Waxing Crescent
May 28
First Quarter
Jun 4
Full
Jun 11
Last Quarter
Jun 19
New

Hourly Weather History & Observations

Time (EDT) Temp. Heat Index Dew Point Humidity Pressure Visibility Wind Dir Wind Speed Gust Speed Precip Events Conditions
12:51 AM 66.9 °F - 54.0 °F 63% 30.15 in 10.0 mi ENE 4.6 mph - N/A   Mostly Cloudy
1:51 AM 64.0 °F - 54.0 °F 70% 30.12 in 10.0 mi East 6.9 mph - N/A   Partly Cloudy
2:51 AM 62.1 °F - 54.0 °F 75% 30.11 in 10.0 mi Calm Calm - N/A   Partly Cloudy
3:51 AM 60.1 °F - 55.0 °F 83% 30.09 in 10.0 mi Calm Calm - N/A   Partly Cloudy
4:51 AM 60.1 °F - 55.0 °F 83% 30.09 in 10.0 mi East 3.5 mph - N/A   Clear
5:51 AM 61.0 °F - 55.0 °F 81% 30.11 in 10.0 mi East 5.8 mph - N/A   Partly Cloudy
6:51 AM 64.0 °F - 57.0 °F 78% 30.12 in 10.0 mi East 5.8 mph - N/A   Mostly Cloudy
7:51 AM 68.0 °F - 57.9 °F 70% 30.12 in 10.0 mi ESE 9.2 mph - N/A   Mostly Cloudy
8:51 AM 73.0 °F - 60.1 °F 64% 30.12 in 10.0 mi ESE 6.9 mph - N/A   Scattered Clouds
9:51 AM 77.0 °F - 64.0 °F 64% 30.11 in 10.0 mi SSE 5.8 mph - N/A   Scattered Clouds
10:51 AM 81.0 °F 82.2 °F 63.0 °F 54% 30.11 in 10.0 mi South 4.6 mph - N/A   Overcast
11:51 AM 82.0 °F 83.8 °F 64.9 °F 56% 30.10 in 10.0 mi South 3.5 mph - N/A   Mostly Cloudy
12:51 PM 84.0 °F 86.3 °F 66.0 °F 55% 30.09 in 10.0 mi Variable 3.5 mph - N/A   Mostly Cloudy
1:51 PM 86.0 °F 88.8 °F 66.9 °F 53% 30.08 in 10.0 mi West 4.6 mph - N/A   Mostly Cloudy
2:51 PM 87.1 °F 88.9 °F 64.9 °F 48% 30.05 in 10.0 mi WNW 8.1 mph - N/A   Mostly Cloudy
3:11 PM 78.8 °F - 64.4 °F 61% 30.09 in 8.0 mi North 26.5 mph 40.3 mph N/A Thunderstorm Thunderstorm
3:23 PM 73.4 °F - 62.6 °F 69% 30.09 in 10.0 mi North 20.7 mph 47.2 mph 0.00 in Rain , Thunderstorm Thunderstorms and Rain
3:44 PM 68.0 °F - 64.4 °F 88% 30.10 in 9.0 mi NE 19.6 mph 28.8 mph 0.01 in Rain Light Rain
3:51 PM 68.0 °F - 63.0 °F 84% 30.09 in 10.0 mi NE 17.3 mph 28.8 mph 0.01 in   Overcast
4:51 PM 69.1 °F - 63.0 °F 81% 30.08 in 10.0 mi East 12.7 mph - N/A   Overcast
5:51 PM 73.0 °F - 64.0 °F 73% 30.05 in 10.0 mi ENE 6.9 mph - N/A   Overcast
6:51 PM 75.0 °F - 64.9 °F 71% 30.06 in 10.0 mi NE 5.8 mph - N/A   Overcast
7:37 PM 73.4 °F - 64.4 °F 73% 30.09 in 10.0 mi East 3.5 mph - N/A Thunderstorm Thunderstorm
7:51 PM 73.9 °F - 64.9 °F 73% 30.07 in 10.0 mi NNE 5.8 mph - N/A Thunderstorm Thunderstorm
8:28 PM 71.6 °F - 64.4 °F 78% 30.10 in 10.0 mi NE 15.0 mph 25.3 mph 0.00 in Rain , Thunderstorm Light Thunderstorms and Rain
8:51 PM 69.8 °F - 66.2 °F 88% 30.08 in 10.0 mi East 9.2 mph - N/A Rain , Thunderstorm Light Thunderstorms and Rain
9:18 PM 69.8 °F - 64.4 °F 83% 30.06 in 10.0 mi SSE 6.9 mph - 0.00 in Rain Light Rain
9:51 PM 69.1 °F - 64.0 °F 84% 30.02 in 10.0 mi SE 6.9 mph - 0.00 in   Overcast
10:51 PM 64.9 °F - 63.0 °F 93% 30.01 in 10.0 mi SE 5.8 mph - N/A   Mostly Cloudy
11:51 PM 68.0 °F - 64.0 °F 87% 30.01 in 10.0 mi SE 8.1 mph - N/A   Partly Cloudy